Simultaneous Nadir Overpasses (SNOs) Predictions

Prediction of SNOs between GOES-16 and AQUA Satellite Orbit:

Table of predicted SNOs for the next 14.0 days since TLE Epoch: 1/24/2025
Index Date Time (GOES-16) GOES-16 Lat,Lon AQUA Lat,Lon Distance(km) Time Diff (sec)
1 01/25/2025 07:16:06 -0.00, -75.20 -0.63, -72.25 335.41 80
2 01/25/2025 19:35:41 -0.01, -75.20 -0.42, -76.98 202.92 80
3 01/27/2025 19:19:08 -0.01, -75.21 0.60, -72.27 333.12 80
4 01/28/2025 07:38:34 0.01, -75.21 0.40, -76.97 200.89 80
5 01/30/2025 07:16:40 0.01, -75.22 -0.65, -72.27 336.04 80
6 01/30/2025 19:36:14 -0.01, -75.22 -0.41, -76.99 202.21 80
7 02/01/2025 19:19:38 -0.00, -75.24 0.61, -72.28 336.63 80
8 02/02/2025 07:39:04 0.00, -75.26 0.35, -76.99 196.22 80
9 02/04/2025 07:17:06 0.00, -75.28 -0.64, -72.26 343.60 80
10 02/04/2025 19:36:39 -0.00, -75.28 -0.37, -76.99 194.35 80
11 02/06/2025 19:20:00 0.00, -75.31 0.66, -72.26 346.47 80
12 02/07/2025 07:39:24 -0.01, -75.33 0.37, -76.95 185.56 80
